Location: Madrid
(40.4000°N, 3.6830°W)
Time: 04:18:09
(UTC+02:00)

ISS - Pass Details

Date: 23 May 2019
Orbit: 408 x 418 km, 51.6° (Epoch: 26 May)

Event Time Altitude Azimuth Distance (km) Brightness Sun altitude
Rises 00:14:22 0° 297° (WNW) 2,352 0.9 -23.3°
Reaches altitude 10° 00:17:29 10° 329° (NNW) 1,493 0.1 -23.6°
Maximum altitude 00:18:59 12° 356° (N) 1,356 -0.3 -23.7°
Drops below altitude 10° 00:20:29 10° 22° (NNE) 1,495 -0.5 -23.9°
Sets 00:23:36 0° 54° (NE) 2,361 0.2 -24.2°
Enters shadow 00:23:40 - 54° (NE) 2,385 0.2 -24.2°
